Location: A�n Tadlesse
(35.0351°N, 0.5353°E)
Time: 05:36:57
(UTC+00:00)

USA 116 - Pass Details

Date: 21 October 2019
Orbit: 405 x 834 km, 97.9° (Epoch: 18 November)

Event Time Altitude Azimuth Distance (km) Brightness Sun altitude
Rises 18:08:23 0° 15° (NNE) 2,408 6.8 -11.4°
Reaches altitude 10° 18:10:20 10° 19° (NNE) 1,573 5.8 -11.8°
Maximum altitude 18:13:39 64° 102° (ESE) 528 3.3 -12.5°
Drops below altitude 10° 18:17:19 10° 184° (S) 1,734 6.4 -13.2°
Sets 18:19:32 0° 187° (S) 2,686 7.4 -13.7°
